Temperature
17 18 18 18 18 17 17 16 16 17 17 18 17 17 18 19 19 19 19 19 19 19 19 19 19 19 19 19 18 18 18 18 18 17 17 17 16 16 16 16 16 15 15 15
18 18 18 18 18 17 17 17 16 17 17 17 18 18 18 18 19 19 19 19 19 19 19 19 19 19 19 19 19 18 18 18 18 17 17 17 16 16 16 16 15 15 15 15
16 17 18 17 18 18 17 17 17 17 17 17 17 17 18 18 19 19 19 19 20 20 20 20 20 19 19 19 18 18 18 18 18 17 17 17 16 16 16 15 15 15 15 15
15 17 17 18 18 18 18 18 17 17 17 17 17 18 19 19 19 19 19 19 20 20 20 20 19 19 19 19 18 18 18 18 17 17 17 16 16 16 16 15 15 15 15 14
14 16 16 18 18 18 18 18 17 17 17 17 18 18 18 19 19 19 19 19 20 20 20 19 19 19 19 18 18 18 18 17 17 17 16 16 16 16 15 15 15 14 14 14
14 16 16 18 18 19 18 18 18 17 17 17 17 16 17 19 19 19 19 19 19 19 19 19 19 18 18 18 18 18 17 17 17 16 16 16 16 15 15 15 14 14 14 14
14 15 15 17 18 18 18 18 18 18 18 17 17 17 19 19 19 19 19 19 19 19 18 18 18 18 18 18 18 18 17 17 17 16 16 16 15 15 15 14 14 14 13 13
13 15 16 17 17 17 17 19 19 19 19 18 18 19 19 19 19 19 18 18 18 18 18 18 18 18 18 18 17 17 17 17 16 16 16 15 15 15 14 14 13 13 13 13
14 15 16 17 18 19 19 19 19 19 19 19 18 18 18 18 18 18 18 18 18 18 17 17 17 17 17 17 17 17 16 16 16 15 15 15 15 14 14 13 13 13 13 12
13 15 16 17 18 19 19 19 19 19 19 19 19 18 18 18 18 18 18 17 17 17 17 17 17 16 17 16 16 16 16 16 15 15 15 14 14 14 13 13 13 12 12 12
14 15 16 17 18 18 19 19 19 19 19 18 18 18 18 17 17 17 17 17 17 17 17 16 16 16 16 16 16 16 15 15 15 14 14 14 13 13 13 12 12 12 11 11
14 16 15 17 18 18 18 18 18 18 18 18 18 17 17 17 17 17 16 16 16 16 16 16 16 16 16 15 15 15 15 14 14 14 13 13 13 12 12 12 11 11 11 11
18 18 18 18 18 18 18 18 18 18 18 17 17 17 17 16 16 16 16 16 16 16 16 16 15 15 15 15 15 14 14 14 14 13 13 12 12 12 12 11 11 11 10 10
17 17 17 17 17 17 17 17 17 17 17 17 17 16 16 16 16 16 16 15 15 15 15 15 15 15 14 14 14 14 13 13 13 12 12 12 11 11 11 11 11 10 10 10
17 17 17 17 17 17 16 16 16 16 16 16 16 16 16 16 16 15 15 15 15 14 14 14 14 14 13 13 13 13 13 12 12 12 11 11 11 11 10 10 10 10 10 9
16 16 16 16 16 16 16 16 16 16 15 15 15 15 15 15 15 15 15 14 14 14 14 14 14 13 13 13 12 12 12 12 11 11 11 10 10 10 10 10 9 9 9 9
15 15 15 15 15 15 15 15 15 15 15 15 15 15 15 14 14 14 14 14 14 13 13 13 13 13 12 12 12 12 11 11 11 10 10 10 10 9 9 9 9 8 8 8
15 16 16 16 15 15 15 15 15 15 15 14 14 14 14 14 14 14 13 13 13 13 13 12 12 12 12 11 11 11 11 10 10 10 9 9 9 9 9 8 8 8 8 7
15 15 15 15 15 15 15 14 14 14 14 14 14 14 14 14 13 13 13 13 12 12 12 12 12 11 11 11 11 10 10 10 10 9 9 9 8 8 8 8 8 7 7 7
14 14 14 14 14 14 14 14 14 14 14 13 13 13 13 13 13 12 12 12 12 12 12 11 11 11 11 10 10 10 10 9 9 9 8 8 8 8 8 7 7 7 7 6
13 14 14 14 14 14 14 14 13 13 13 13 13 13 13 12 12 12 12 11 11 11 11 10 10 10 10 10 9 9 9 9 9 8 8 8 8 7 7 7 7 6 6 6
13 13 13 13 13 13 13 13 13 13 12 12 12 12 12 12 11 11 11 11 11 10 10 10 10 10 9 9 9 9 8 8 8 8 7 7 7 7 7 6 6 6 6 5
12 12 12 12 12 12 12 12 12 12 12 12 12 11 11 11 11 11 11 10 10 10 10 9 9 9 9 9 8 8 8 8 7 7 7 7 6 6 6 6 6 5 5 5
12 12 12 11 11 11 11 11 11 11 11 11 11 11 11 10 10 10 10 10 9 9 9 9 9 8 8 8 8 8 7 7 7 7 6 6 6 6 5 5 5 5 4 4
11 11 11 11 11 11 10 10 10 10 10 10 10 10 10 10 10 9 9 9 9 9 8 8 8 8 8 7 7 7 7 7 6 6 6 6 5 5 5 4 4 4 4 4
10 10 10 10 10 10 10 10 10 9 9 9 9 9 9 9 9 9 9 8 8 8 8 8 7 7 7 7 6 6 6 6 6 6 5 5 5 5 4 4 4 3 3 3
10 10 9 9 9 9 9 9 9 9 9 9 9 8 8 8 8 8 8 8 7 7 7 7 7 6 6 6 6 6 6 5 5 5 5 5 4 4 4 3 3 3 3 2
Wind_Speed
4 3 3 3 4 5 5 6 6 6 6 7 5 3 2 1 2 3 4 5 6 6 6 5 5 5 6 6 6 6 6 6 6 5 4 4 4 4 4 4 4 3 3 2
1 1 2 1 4 5 5 4 4 4 6 6 3 1 1 1 3 4 5 5 6 6 6 6 6 6 6 6 6 6 7 6 5 5 5 4 4 4 4 3 3 3 3 3
2 3 2 4 6 6 4 4 6 6 7 3 1 2 3 4 4 4 4 4 5 6 7 7 7 7 7 6 6 6 6 6 5 6 5 5 5 5 5 4 4 3 3 3
1 1 3 7 3 5 6 5 5 5 4 3 4 3 2 3 4 4 4 4 5 5 5 5 4 4 5 5 6 6 5 5 5 6 5 5 5 5 4 4 4 4 3 3
3 3 5 6 3 5 5 4 4 6 4 2 2 2 2 2 3 4 5 4 4 5 5 5 5 5 5 5 5 5 5 5 5 6 6 5 5 5 4 4 4 3 3 3
4 4 6 7 4 3 4 4 4 6 5 4 5 2 4 2 3 3 2 2 3 3 3 4 3 5 6 5 5 5 6 6 6 6 7 6 6 5 3 4 4 3 3 2
4 4 7 7 3 5 4 7 3 5 5 6 6 6 3 3 3 3 3 3 3 4 4 3 3 5 5 5 5 6 5 5 5 6 6 6 5 4 4 4 3 3 2 1
5 4 7 4 5 7 7 2 3 4 4 5 4 3 2 3 3 3 3 3 3 4 3 2 4 5 4 4 4 3 5 5 5 4 5 5 5 4 4 4 4 2 2 0
8 8 5 3 4 3 3 3 2 3 3 5 4 3 3 3 3 3 3 3 3 4 3 2 3 4 4 3 2 4 5 5 4 4 3 4 5 5 3 3 3 2 2 1
3 5 4 3 2 1 2 2 2 3 3 5 4 4 4 3 3 3 3 3 3 5 4 2 2 2 3 3 3 5 5 4 4 4 3 3 3 4 4 4 3 3 2 2
3 4 2 2 2 2 1 1 2 2 2 4 5 4 4 4 3 3 3 2 3 4 4 3 2 2 2 3 5 5 4 4 4 4 4 3 3 2 3 3 4 4 4 3
7 7 6 6 4 2 2 2 3 3 2 2 4 5 4 4 3 4 3 3 4 4 4 3 3 2 2 2 5 6 4 4 3 3 3 3 3 2 2 1 2 3 3 3
6 4 4 3 3 3 3 3 3 3 4 2 2 4 5 4 3 4 4 4 4 4 4 3 3 3 2 2 4 5 5 4 3 3 4 3 3 3 2 2 3 1 1 2
4 3 2 4 4 4 3 2 2 2 2 3 3 3 4 4 4 4 4 4 4 4 4 3 3 2 2 3 4 4 4 5 4 3 4 3 3 3 3 3 1 1 2 0
6 5 6 4 3 2 2 2 3 2 2 2 3 4 5 5 5 4 4 4 4 4 3 3 3 2 2 4 5 4 4 3 3 3 3 3 3 3 2 2 2 0 1 1
4 3 4 4 5 4 3 4 5 5 4 3 3 4 5 5 5 4 4 5 6 5 4 4 3 3 3 4 4 4 3 5 4 3 3 3 2 3 2 2 2 1 1 1
5 4 4 5 6 6 6 6 7 6 5 5 5 5 4 5 4 4 3 4 4 4 4 4 4 3 4 4 5 4 3 4 5 4 3 3 3 3 3 2 2 2 2 2
7 7 7 8 8 6 5 5 5 5 5 5 5 5 6 6 6 5 4 3 3 2 2 3 3 4 4 4 4 4 4 3 3 3 3 2 2 2 2 2 3 2 1 1
4 4 5 5 6 6 5 5 5 5 4 5 6 6 6 5 5 5 5 5 4 3 3 2 4 4 3 4 4 3 4 4 3 2 2 3 2 2 2 2 2 2 2 1
1 2 3 2 3 4 4 4 3 3 3 5 6 5 4 4 4 5 5 4 4 4 4 4 4 3 3 4 4 4 4 4 3 3 2 2 2 2 2 2 2 2 2 2
3 3 3 3 2 2 3 4 4 4 3 5 6 6 6 4 5 5 5 3 3 3 4 5 4 4 3 4 4 3 4 4 3 3 3 2 2 2 2 2 2 2 2 2
3 3 3 3 3 2 1 2 3 4 4 4 4 4 5 4 4 3 3 4 4 5 4 3 3 5 5 5 3 4 4 4 3 3 2 2 2 2 2 2 2 2 2 2
3 3 3 3 3 2 2 2 3 4 4 4 5 5 5 5 4 5 3 3 4 5 4 4 5 7 6 4 4 4 4 3 3 2 2 2 2 2 2 2 2 2 2 2
2 2 3 3 4 4 2 1 1 2 3 3 3 4 5 3 1 2 2 4 5 5 3 5 7 7 5 3 4 3 3 3 3 2 2 2 2 1 2 2 2 2 2 2
3 3 4 4 4 2 2 2 2 2 2 2 1 1 2 3 3 2 2 4 6 5 3 5 7 6 4 3 3 3 3 3 3 3 2 2 2 2 2 2 2 2 2 2
3 3 3 3 3 3 3 3 2 2 2 2 0 0 1 1 2 2 2 3 4 4 3 3 3 4 3 3 3 3 3 3 2 2 2 2 2 2 2 2 2 2 2 3
3 2 2 2 1 2 3 3 3 2 3 3 2 1 1 2 2 3 3 2 2 3 2 2 2 3 2 2 2 2 2 2 2 2 2 2 2 2 2 2 2 2 2 3
Wind_Direction
237 240 177 197 202 181 187 193 197 229 235 259 264 247 242 220 164 163 173 176 181 186 188 186 187 188 187 186 179 173 167 177 192 188 175 169 168 168 163 160 167 169 162 170
312 289 176 240 238 205 213 207 213 240 263 259 259 214 176 187 166 178 188 184 186 188 187 191 192 193 189 186 183 172 177 192 187 168 166 173 173 164 157 162 162 154 163 169
258 308 41 278 239 203 197 201 183 216 242 241 202 203 208 204 196 195 198 192 190 195 197 201 200 193 192 188 172 171 182 185 176 171 174 180 171 160 168 174 166 165 178 174
166 72 236 247 242 190 193 224 208 213 233 212 213 212 206 192 190 203 204 198 197 199 200 198 187 178 174 159 161 172 179 180 176 171 172 166 160 169 179 170 170 176 183 190
147 195 268 285 242 177 180 245 215 206 212 190 149 75 343 243 197 201 204 201 196 190 183 175 173 166 150 150 158 168 180 183 178 170 165 163 170 181 177 166 174 180 183 186
148 174 228 246 248 179 132 260 237 195 198 175 128 131 257 239 185 188 172 160 152 141 133 141 158 149 146 156 162 187 195 187 174 167 167 175 182 177 164 165 180 172 172 187
175 208 253 251 240 124 159 240 230 188 189 174 179 200 208 163 159 153 140 132 124 123 128 145 146 139 150 159 188 203 186 163 160 165 170 172 164 157 150 155 150 152 165 195
166 195 248 241 146 171 209 221 170 175 176 172 182 169 138 136 134 120 108 104 117 126 129 122 129 136 148 183 206 171 151 147 153 159 162 155 146 143 140 148 148 152 152 190
189 210 237 212 203 215 173 173 187 175 176 161 158 164 149 135 128 126 128 126 125 133 127 106 124 140 154 193 165 142 136 142 145 141 144 144 144 145 138 145 151 164 169 205
219 251 245 241 241 193 178 189 189 165 158 148 148 148 139 137 136 132 128 132 128 126 124 117 114 131 157 161 146 134 135 136 133 134 133 131 134 143 148 159 168 175 187 212
233 260 282 252 216 190 99 71 99 100 127 148 144 144 146 144 147 145 135 127 130 138 142 145 130 111 117 132 130 128 129 128 126 130 134 127 125 141 163 184 184 184 199 196
220 219 200 234 236 204 158 162 159 136 103 118 152 159 151 153 157 148 144 134 132 133 134 138 131 119 109 125 132 132 127 128 133 134 133 135 129 90 62 121 145 163 162 161
215 210 208 229 218 216 202 194 175 163 165 166 169 157 149 147 153 146 146 143 146 152 152 145 134 123 110 119 129 134 143 146 142 142 142 144 146 146 127 36 51 74 152 165
207 171 220 228 227 225 211 201 161 137 142 146 155 144 141 137 141 152 167 170 153 141 141 142 138 145 145 128 126 131 137 144 147 154 154 156 160 163 161 155 116 354 352 50
229 221 215 217 212 220 210 166 146 157 152 143 150 151 154 156 164 173 173 150 134 130 135 139 144 170 159 139 135 139 140 146 147 146 147 151 153 152 152 153 156 167 20 15
220 212 184 181 196 202 191 181 179 190 184 184 177 175 175 166 161 157 157 153 151 164 174 169 177 190 162 147 142 143 149 149 142 140 139 141 148 153 160 164 170 182 206 234
172 190 192 192 199 204 205 201 194 194 190 188 188 174 154 142 140 152 167 170 169 175 178 178 187 181 159 153 150 152 150 155 146 139 151 160 164 174 178 178 190 211 241 238
207 206 200 195 199 204 209 201 193 187 187 190 170 157 158 164 174 180 174 149 128 127 176 185 178 166 157 157 155 154 153 155 160 163 165 169 176 183 181 185 197 211 256 260
205 204 208 205 199 193 196 198 197 191 181 168 164 171 177 178 173 165 152 145 154 181 220 203 175 155 155 162 147 146 150 150 153 161 166 168 165 169 177 190 209 223 228 237
152 156 159 164 163 170 181 185 176 174 175 166 161 158 160 166 161 155 153 170 198 204 195 183 164 157 158 163 146 146 152 155 158 162 165 169 178 188 197 205 212 222 232 239
142 145 146 142 139 141 153 157 155 164 168 163 166 174 175 172 163 159 158 191 230 182 172 174 166 168 166 165 155 153 156 158 162 170 175 182 185 193 204 213 222 228 233 243
145 145 147 134 125 124 132 137 147 152 151 155 158 157 156 163 167 171 188 202 199 178 169 174 176 179 175 162 159 162 161 162 170 174 178 187 192 199 211 217 224 235 237 238
144 147 147 148 151 147 111 111 140 150 157 163 167 172 176 182 178 176 209 216 182 181 176 181 184 178 168 154 158 163 163 167 176 183 188 197 203 206 212 221 226 227 229 238
135 136 138 136 127 119 122 131 126 141 147 153 167 176 172 168 193 218 195 192 191 181 178 179 174 170 158 151 156 162 167 173 180 183 186 189 192 202 211 216 223 227 227 234
137 133 132 135 140 158 165 130 99 93 99 99 111 150 174 175 184 192 177 180 179 169 168 177 172 160 148 152 161 170 178 185 182 176 176 183 194 202 212 216 216 223 233 238
149 153 166 177 176 170 160 148 146 150 139 131 88 79 106 110 130 140 139 151 159 160 158 162 158 151 150 157 163 171 178 181 175 165 177 191 198 200 210 221 226 231 238 249
127 131 132 118 118 147 151 154 162 173 171 164 167 164 132 121 119 125 126 131 137 137 137 140 141 143 144 151 158 168 175 174 172 176 183 194 203 210 219 229 241 248 251 255
Height
1517 1514 1515 1516 1517 1519 1523 1525 1530 1526 1522 1515 1511 1510 1509 1509 1510 1511 1513 1515 1518 1520 1523 1527 1529 1532 1534 1537 1540 1542 1544 1546 1547 1549 1550 1552 1553 1554 1555 1555 1556 1557 1557 1557
1518 1514 1515 1516 1515 1516 1517 1519 1521 1520 1518 1509 1508 1508 1508 1508 1509 1511 1512 1514 1516 1519 1522 1525 1527 1530 1532 1535 1537 1539 1541 1543 1545 1546 1548 1549 1550 1551 1552 1553 1554 1554 1555 1555
1525 1518 1516 1522 1512 1512 1513 1512 1514 1518 1512 1507 1507 1507 1507 1508 1509 1509 1511 1513 1515 1518 1520 1523 1525 1528 1530 1532 1534 1537 1539 1540 1542 1543 1545 1546 1547 1548 1549 1550 1551 1551 1552 1552
1527 1523 1530 1516 1504 1504 1507 1507 1507 1507 1505 1505 1505 1505 1506 1507 1508 1508 1510 1512 1514 1516 1519 1521 1524 1526 1528 1530 1532 1534 1536 1537 1539 1540 1542 1543 1544 1545 1546 1547 1548 1548 1549 1550
1529 1529 1523 1510 1502 1503 1506 1507 1503 1504 1503 1504 1504 1505 1506 1506 1507 1508 1510 1511 1513 1515 1517 1519 1522 1524 1526 1528 1529 1531 1533 1534 1536 1537 1539 1540 1541 1542 1543 1544 1545 1545 1546 1547
1527 1527 1526 1510 1498 1497 1502 1508 1500 1500 1501 1502 1504 1509 1507 1505 1506 1507 1509 1511 1513 1514 1516 1518 1520 1522 1524 1525 1527 1528 1530 1531 1533 1535 1536 1537 1538 1539 1540 1541 1542 1542 1543 1543
1524 1524 1516 1500 1496 1498 1512 1507 1496 1497 1498 1500 1501 1503 1503 1503 1505 1506 1508 1510 1511 1513 1515 1516 1518 1520 1521 1523 1525 1526 1528 1529 1530 1532 1533 1534 1535 1536 1537 1538 1539 1539 1540 1540
1521 1522 1515 1495 1495 1499 1498 1494 1494 1495 1496 1497 1498 1500 1501 1502 1503 1505 1506 1508 1510 1511 1513 1515 1517 1518 1519 1521 1522 1524 1525 1526 1527 1529 1530 1531 1532 1533 1534 1535 1535 1536 1536 1537
1505 1504 1494 1492 1492 1492 1493 1493 1493 1494 1495 1496 1497 1499 1500 1501 1503 1504 1505 1507 1509 1510 1512 1514 1515 1517 1518 1519 1520 1522 1522 1524 1525 1526 1527 1528 1529 1530 1531 1531 1532 1532 1533 1533
1498 1493 1490 1490 1490 1491 1492 1492 1493 1494 1495 1496 1496 1498 1499 1500 1502 1503 1504 1506 1508 1509 1511 1512 1514 1516 1517 1518 1519 1520 1520 1521 1522 1523 1524 1525 1526 1527 1527 1528 1529 1529 1530 1530
1494 1490 1489 1488 1489 1490 1491 1491 1492 1493 1494 1495 1496 1497 1498 1500 1501 1502 1504 1505 1507 1508 1510 1512 1513 1514 1515 1516 1517 1518 1518 1519 1520 1521 1522 1522 1523 1524 1525 1526 1526 1527 1527 1528
1489 1485 1486 1486 1487 1488 1489 1490 1491 1492 1493 1494 1496 1497 1498 1499 1500 1501 1503 1505 1506 1508 1509 1511 1512 1513 1514 1515 1515 1516 1516 1517 1518 1519 1520 1520 1521 1522 1523 1524 1524 1525 1525 1525
1480 1481 1482 1483 1485 1487 1488 1489 1490 1491 1492 1493 1494 1496 1497 1498 1499 1500 1502 1503 1505 1506 1508 1510 1511 1512 1513 1514 1514 1514 1515 1516 1516 1517 1517 1518 1519 1519 1520 1521 1522 1522 1522 1522
1477 1479 1479 1480 1482 1484 1486 1487 1488 1489 1490 1491 1492 1494 1495 1496 1498 1499 1500 1502 1504 1505 1507 1508 1509 1510 1511 1512 1513 1513 1514 1514 1514 1515 1515 1516 1517 1517 1517 1518 1518 1518 1519 1519
1474 1476 1476 1477 1479 1481 1483 1484 1485 1486 1488 1489 1490 1492 1493 1494 1495 1497 1499 1500 1502 1504 1505 1506 1507 1509 1510 1510 1511 1511 1512 1512 1513 1513 1514 1514 1515 1515 1515 1516 1516 1516 1516 1516
1470 1472 1473 1474 1475 1477 1479 1481 1482 1484 1485 1486 1488 1489 1491 1492 1493 1495 1497 1498 1500 1501 1503 1504 1505 1506 1507 1508 1509 1509 1509 1510 1511 1511 1512 1512 1513 1513 1513 1513 1513 1513 1513 1513
1467 1468 1470 1471 1472 1474 1475 1477 1479 1481 1482 1484 1485 1486 1488 1489 1491 1492 1494 1496 1497 1499 1501 1502 1503 1504 1505 1505 1506 1507 1507 1507 1508 1509 1509 1510 1510 1510 1510 1510 1510 1510 1510 1510
1464 1465 1466 1468 1469 1470 1472 1474 1476 1478 1479 1480 1482 1484 1485 1486 1487 1489 1491 1493 1494 1496 1497 1499 1500 1501 1502 1503 1503 1504 1504 1505 1505 1506 1506 1507 1507 1508 1508 1508 1507 1507 1507 1507
1460 1462 1463 1465 1466 1467 1469 1471 1473 1474 1476 1477 1479 1480 1482 1484 1485 1487 1488 1490 1491 1492 1494 1495 1497 1498 1499 1500 1500 1501 1501 1502 1502 1503 1503 1504 1504 1504 1504 1504 1504 1504 1504 1503
1456 1458 1460 1462 1463 1465 1466 1468 1470 1471 1473 1474 1476 1477 1479 1481 1483 1484 1486 1487 1488 1490 1491 1492 1493 1494 1495 1496 1497 1498 1498 1498 1499 1499 1500 1500 1501 1501 1501 1501 1501 1501 1500 1500
1454 1456 1457 1459 1461 1463 1464 1466 1467 1468 1470 1472 1473 1474 1476 1478 1480 1481 1483 1484 1486 1487 1488 1489 1490 1491 1492 1493 1494 1494 1495 1495 1496 1496 1497 1497 1497 1497 1498 1498 1497 1497 1496 1496
1452 1454 1455 1457 1459 1460 1462 1464 1465 1466 1468 1469 1471 1472 1474 1475 1477 1478 1480 1481 1482 1483 1484 1485 1486 1488 1489 1490 1490 1491 1492 1492 1492 1493 1493 1493 1493 1493 1494 1493 1493 1493 1492 1492
1450 1452 1453 1455 1457 1458 1460 1462 1463 1464 1465 1467 1468 1469 1470 1472 1473 1475 1476 1477 1479 1479 1480 1481 1483 1484 1485 1486 1487 1487 1488 1488 1489 1489 1490 1490 1490 1490 1489 1489 1489 1488 1488 1487
1448 1450 1452 1454 1455 1457 1458 1459 1461 1462 1464 1465 1466 1467 1468 1469 1470 1471 1473 1474 1475 1476 1477 1478 1479 1480 1481 1482 1483 1483 1484 1485 1485 1486 1486 1486 1486 1486 1486 1485 1484 1484 1483 1482
1447 1448 1450 1452 1453 1455 1456 1457 1459 1460 1461 1462 1464 1465 1466 1467 1467 1468 1469 1470 1471 1472 1473 1474 1476 1477 1477 1478 1479 1480 1481 1481 1482 1482 1482 1482 1482 1482 1481 1481 1480 1479 1479 1478
1445 1447 1448 1450 1451 1453 1454 1455 1456 1458 1459 1460 1461 1462 1463 1464 1465 1465 1466 1467 1468 1469 1470 1471 1472 1473 1474 1475 1475 1476 1477 1478 1478 1478 1478 1478 1478 1477 1477 1476 1476 1475 1474 1473
1443 1445 1447 1448 1450 1451 1452 1453 1454 1455 1456 1457 1458 1459 1460 1461 1461 1462 1463 1464 1465 1466 1467 1468 1469 1470 1471 1472 1473 1473 1474 1474 1474 1474 1475 1474 1474 1473 1473 1472 1471 1471 1469 1468